Monterey, CA

4:23 AM PST on December 17, 2017 (GMT -0800)
Monterey Peninsula

Weather History for KMRY - July, 2014

Change the Weather History Date:

Tuesday, July 29, 2014

  Actual Average Record
Temperature  
Mean Temperature 67 °F 61 °F  
Max Temperature 74 °F 67 °F 74 °F (2014)
Min Temperature 59 °F 54 °F 53 °F (2000)
Degree Days  
Heating Degree Days 0    
Month to date heating degree days 56  
Since 1 June heating degree days 168  
Since 1 July heating degree days 56  
Cooling Degree Days 2    
Month to date cooling degree days 24  
Year to date cooling degree days 67  
Since 1 June cooling degree days 25  
Growing Degree Days 14 (Base 50)    
Moisture  
Dew Point 57 °F    
Average Humidity 75    
Maximum Humidity 93    
Minimum Humidity 57    
Precipitation  
Precipitation 0.00 in - 0.00 in (2017)
Month to date precipitation 0.01  
Year to date precipitation 7.40  
Since 1 July precipitation 0.01  
Sea Level Pressure  
Sea Level Pressure 30.08 in    
Wind  
Wind Speed 5 mph (NW)    
Max Wind Speed 16 mph    
Max Gust Speed 20 mph    
Visibility 10 miles    
Events      
T = Trace of Precipitation, MM = Missing Value Source: NWS Daily Summary

Daily Weather History Graph

Daily Weather History Graph

Search for Another Location

Airport or City:

Trip Planner

Search our weather history database for the weather conditions in past years. The results will help you decide how hot, cold, wet, or windy it might be!

Date:

Astronomy

Jul. 29, 2014 Rise Set
Actual Time 6:11 AM PDT 8:16 PM PDT
Civil Twilight 5:42 AM PDT 8:44 PM PDT
Nautical Twilight 5:07 AM PDT 9:19 PM PDT
Astronomical Twilight 4:29 AM PDT 9:57 PM PDT
Moon 8:46 AM PDT (7/29) 9:37 PM PDT (7/29)
Length of Visible Light 15h 02m
Length of Day
14h 04m
Waxing Crescent, 7% of the Moon is Illuminated
Jul 29
Waxing Crescent
Aug 3
First Quarter
Aug 10
Full
Aug 17
Last Quarter
Aug 25
New

Hourly Weather History & Observations

Time (PDT) Temp. Dew Point Humidity Pressure Visibility Wind Dir Wind Speed Gust Speed Precip Events Conditions
12:34 AM 60.8 °F 57.2 °F 88% 30.07 in 10.0 mi Calm Calm - N/A   Scattered Clouds
12:54 AM 61.0 °F 55.9 °F 83% 30.10 in 10.0 mi SSW 4.6 mph - N/A   Clear
1:47 AM 60.8 °F 57.2 °F 88% 30.07 in 10.0 mi SW 3.5 mph - N/A   Scattered Clouds
1:54 AM 60.1 °F 57.0 °F 90% 30.10 in 10.0 mi Calm Calm - N/A   Mostly Cloudy
2:54 AM 61.0 °F 57.0 °F 87% 30.10 in 10.0 mi East 3.5 mph - N/A   Overcast
3:54 AM 61.0 °F 57.0 °F 87% 30.10 in 10.0 mi Calm Calm - N/A   Overcast
4:54 AM 61.0 °F 57.0 °F 87% 30.09 in 10.0 mi East 3.5 mph - N/A   Overcast
5:54 AM 60.1 °F 57.0 °F 90% 30.08 in 10.0 mi Calm Calm - N/A   Overcast
6:27 AM 59.0 °F 57.2 °F 94% 30.04 in 8.0 mi Calm Calm - N/A   Scattered Clouds
6:54 AM 59.0 °F 57.0 °F 93% 30.08 in 8.0 mi Calm Calm - N/A   Clear
7:54 AM 61.0 °F 57.9 °F 90% 30.10 in 9.0 mi Calm Calm - N/A   Clear
8:54 AM 64.0 °F 57.9 °F 80% 30.11 in 10.0 mi WNW 3.5 mph - N/A   Clear
9:26 AM 64.4 °F 59.0 °F 83% 30.08 in 10.0 mi WNW 5.8 mph - N/A   Scattered Clouds
9:54 AM 64.9 °F 59.0 °F 81% 30.12 in 10.0 mi Variable 5.8 mph - N/A   Scattered Clouds
10:54 AM 66.0 °F 57.9 °F 75% 30.11 in 10.0 mi WNW 6.9 mph - N/A   Scattered Clouds
11:54 AM 66.0 °F 57.9 °F 75% 30.11 in 10.0 mi NW 9.2 mph - N/A   Clear
12:54 PM 69.1 °F 59.0 °F 70% 30.10 in 10.0 mi North 9.2 mph - N/A   Clear
1:54 PM 70.0 °F 57.9 °F 65% 30.09 in 10.0 mi WNW 11.5 mph - N/A   Clear
3:54 PM 69.1 °F 57.0 °F 65% 30.08 in 10.0 mi WNW 15.0 mph 19.6 mph N/A   Clear
4:54 PM 68.0 °F 57.0 °F 68% 30.06 in 10.0 mi WNW 9.2 mph - N/A   Clear
5:54 PM 66.0 °F 57.9 °F 75% 30.06 in 10.0 mi NW 8.1 mph - N/A   Clear
6:54 PM 64.0 °F 57.9 °F 80% 30.06 in 10.0 mi NW 6.9 mph - N/A   Clear
7:54 PM 62.1 °F 57.0 °F 84% 30.06 in 10.0 mi NW 5.8 mph - N/A   Partly Cloudy
8:13 PM 60.8 °F 57.2 °F 88% 30.03 in 10.0 mi NW 4.6 mph - N/A   Mostly Cloudy
8:54 PM 61.0 °F 57.0 °F 87% 30.06 in 10.0 mi NNW 3.5 mph - N/A   Overcast
9:54 PM 60.1 °F 57.0 °F 90% 30.06 in 10.0 mi Calm Calm - N/A   Overcast
10:30 PM 60.8 °F 57.2 °F 88% 30.03 in 10.0 mi Calm Calm - N/A   Overcast
10:54 PM 60.1 °F 57.0 °F 90% 30.06 in 10.0 mi NW 3.5 mph - N/A   Overcast
11:54 PM 60.1 °F 57.0 °F 90% 30.05 in 10.0 mi Calm Calm - N/A   Overcast